Weather History for KCTB - May, 2014

Change the Weather History Date:

Saturday, May 17, 2014

  Actual Average Record
Temperature  
Mean Temperature 51 °F 50 °F  
Max Temperature 67 °F 63 °F 87 °F (2006)
Min Temperature 34 °F 38 °F 13 °F (1909)
Degree Days  
Heating Degree Days 14 15  
Month to date heating degree days 339 292  
Since 1 July heating degree days 8474 8112  
Cooling Degree Days 0 0  
Month to date cooling degree days 0 0  
Year to date cooling degree days 0 0  
Moisture  
Dew Point 41 °F    
Average Humidity 65    
Maximum Humidity 92    
Minimum Humidity 37    
Precipitation  
Precipitation 0.12 in 0.07 in 0.70 in (1949)
Month to date precipitation 0.52 0.83  
Year to date precipitation 4.02 2.52  
Snow  
Snow 0.00 in - - ()
Snow Depth 0.00 in    
Sea Level Pressure  
Sea Level Pressure 29.89 in    
Wind  
Wind Speed 8 mph (ESE)    
Max Wind Speed 26 mph    
Max Gust Speed 33 mph    
Visibility 10 miles    
Events Thunderstorm    
T = Trace of Precipitation, MM = Missing Value Source: NWS Daily Summary

Daily Weather History Graph

Daily Weather History Graph

Search for Another Location

Airport or City:

Trip Planner

Search our weather history database for the weather conditions in past years. The results will help you decide how hot, cold, wet, or windy it might be!

Date:

Astronomy

May. 17, 2014 Rise Set
Actual Time 5:46 AM MDT 9:06 PM MDT
Civil Twilight 5:07 AM MDT 9:44 PM MDT
Nautical Twilight 4:17 AM MDT 10:35 PM MDT
Astronomical Twilight 3:12 AM MDT 11:41 PM MDT
Moon No Moon Rise 8:33 AM MDT (5/17)
Length of Visible Light 16h 36m
Length of Day
15h 20m
Waning Gibbous, 89% of the Moon is Illuminated
May 17
Waning Gibbous
May 21
Last Quarter
May 28
New
Jun 5
First Quarter
Jun 12
Full

Hourly Weather History & Observations

Time (MDT) Temp. Windchill Dew Point Humidity Pressure Visibility Wind Dir Wind Speed Gust Speed Precip Events Conditions
12:56 AM 41.0 °F - 36.0 °F 82% 30.07 in 10.0 mi Calm Calm - N/A   Clear
1:56 AM 39.9 °F - 37.0 °F 89% 30.06 in 10.0 mi Calm Calm - N/A   Clear
2:56 AM 35.1 °F 29.3 °F 33.1 °F 92% 30.06 in 10.0 mi NNE 6.9 mph - N/A   Clear
3:56 AM 37.9 °F - 36.0 °F 93% 30.04 in 10.0 mi Calm Calm - N/A   Mostly Cloudy
4:56 AM 37.0 °F 32.4 °F 35.1 °F 93% 30.03 in 10.0 mi NNE 5.8 mph - N/A   Overcast
5:56 AM 37.9 °F 35.5 °F 35.1 °F 89% 30.02 in 10.0 mi ENE 3.5 mph - N/A   Overcast
6:56 AM 42.1 °F - 37.9 °F 85% 30.01 in 10.0 mi Calm Calm - N/A   Overcast
7:56 AM 44.1 °F 42.5 °F 37.9 °F 79% 29.99 in 10.0 mi SSE 3.5 mph - N/A   Overcast
8:56 AM 48.0 °F - 39.9 °F 74% 29.98 in 10.0 mi SE 5.8 mph - N/A   Overcast
9:56 AM 54.0 °F - 42.1 °F 64% 29.96 in 10.0 mi SSE 12.7 mph - N/A   Partly Cloudy
10:08 AM 53.1 °F - 41.0 °F 64% 29.96 in 10.0 mi SSE 11.5 mph - N/A   Mostly Cloudy
10:41 AM 54.0 °F - 42.1 °F 64% 29.95 in 10.0 mi SE 8.1 mph 19.6 mph N/A   Scattered Clouds
10:56 AM 55.9 °F - 42.1 °F 60% 29.94 in 10.0 mi SE 13.8 mph - N/A   Partly Cloudy
11:56 AM 59.0 °F - 43.0 °F 55% 29.91 in 10.0 mi SSE 10.4 mph - N/A   Partly Cloudy
12:56 PM 62.1 °F - 42.1 °F 48% 29.88 in 10.0 mi SE 15.0 mph 20.7 mph N/A   Clear
1:56 PM 63.0 °F - 43.0 °F 48% 29.86 in 10.0 mi SSE 12.7 mph 19.6 mph N/A   Clear
2:56 PM 64.9 °F - 42.1 °F 43% 29.85 in 10.0 mi Variable 3.5 mph - N/A   Partly Cloudy
3:56 PM 64.9 °F - 41.0 °F 42% 29.81 in 10.0 mi Variable 5.8 mph - N/A   Overcast
4:56 PM 64.0 °F - 37.9 °F 38% 29.80 in 10.0 mi SSW 5.8 mph - N/A   Overcast
5:56 PM 64.9 °F - 37.9 °F 37% 29.78 in 10.0 mi SSW 5.8 mph - N/A   Overcast
6:56 PM 64.0 °F - 41.0 °F 43% 29.77 in 10.0 mi South 11.5 mph - N/A   Partly Cloudy
7:29 PM 59.0 °F - 44.1 °F 58% 29.78 in 10.0 mi East 10.4 mph - N/A Thunderstorm Scattered Clouds
7:47 PM 57.9 °F - 45.0 °F 62% 29.79 in 10.0 mi East 6.9 mph - N/A   Mostly Cloudy
7:56 PM 57.9 °F - 44.1 °F 60% 29.78 in 10.0 mi East 6.9 mph - N/A   Overcast
8:56 PM 57.0 °F - 44.1 °F 62% 29.76 in 10.0 mi ENE 10.4 mph 17.3 mph N/A   Overcast
9:56 PM 51.8 °F - 42.8 °F 71% 29.79 in 10.0 mi NNE 9.2 mph - N/A   Scattered Clouds
10:47 PM 51.1 °F - 44.1 °F 77% 29.79 in 10.0 mi West 8.1 mph - N/A Thunderstorm Thunderstorm
10:56 PM 52.0 °F - 43.0 °F 71% 29.77 in 10.0 mi West 27.6 mph 33.4 mph N/A Thunderstorm Thunderstorm
11:32 PM 48.9 °F - 44.1 °F 83% 29.78 in 10.0 mi NE 5.8 mph - 0.12 in   Overcast
11:56 PM 48.9 °F - 44.1 °F 83% 29.74 in 10.0 mi ENE 6.9 mph - 0.12 in Thunderstorm Overcast